[[{"header":{"parameterUnit":"m.s-1","parameterCategory":1,"la1":30.2991,"la2":30.254,"lo1":-89.0895,"lo2":-89.0444,"dy":0.0017,"dx":0.0017,"nx":28,"ny":28,"refTime":"2023-08-13T21:00:00:Z","depth":0,"parameterNumber":2,"parameterNumberName":"U-component_of_WINDS"},"data":[0,0,0,0,0,0,0,0,0,0,0,0,0,0,0,0,0,0,0,0,0,0,0,0,0,0,0,0,0,0,0,0,0,0,0,0,0,0,0,0,0,0,0,0,0,0,0,0,0,0,0,0,0,0,0,0,0,0,1.1556,1.1557,0,1.1684,1.1686,1.1687,1.1728,1.1728,1.1727,1.1727,1.1858,1.1862,1.1866,0,0,0,0,0,0,0,0,0,0,0,0,0,1.1345,1.1349,1.1556,1.1557,1.1559,1.1684,1.1686,1.1688,1.1728,1.1728,1.1727,1.1726,1.1857,1.1861,1.1866,0,0,0,0,0,0,0,0,0,0,0,0,0,1.1452,1.135,1.1556,1.1594,1.1599,1.1684,1.1686,1.1688,1.1729,1.1728,1.1727,1.1726,1.1855,1.1861,1.1867,1.1922,0,0,1.1885,1.1888,0,0,0,0,0,0,0,0,1.1445,1.1459,1.1587,1.1592,1.1597,1.1689,1.166,1.1767,1.1729,1.1679,1.1727,1.1726,1.1803,1.1813,1.1839,1.1928,1.1934,1.1886,1.189,1.1892,1.1894,0,0,0,0,0,0,0,1.1438,1.1454,1.1607,1.1589,1.1595,1.1605,1.162,1.168,1.1744,1.1684,1.1687,1.1702,1.1805,1.1833,1.1842,1.1936,1.1886,1.1891,1.1895,1.1897,1.2077,1.2078,0,0,0,0,0,0,1.1424,1.1448,1.1603,1.1611,1.1518,1.161,1.1626,1.1661,1.1744,1.1756,1.1702,1.1703,1.1823,1.1835,1.1847,1.1917,1.1892,1.1898,1.1901,1.2076,1.2077,1.2078,0,0,0,0,0,0,1.1419,1.1438,1.1597,1.153,1.1551,1.1614,1.1654,1.1664,1.1692,1.1758,1.1769,1.1719,1.1823,1.1839,1.1903,1.1922,1.1901,1.1906,1.2074,1.2076,1.2078,1.2057,0,0,0,0,0,0,1.1413,1.1436,1.1457,1.153,1.1555,1.1651,1.1655,1.1667,1.1702,1.1704,1.1777,1.1788,1.1823,1.1894,1.1909,1.193,1.1911,1.2073,1.2075,1.2077,1.2056,1.2058,1.2059,0,0,0,0,0,1.1406,1.1446,1.1458,1.1477,1.1583,1.1652,1.1666,1.1706,1.1703,1.1726,1.1768,1.1785,1.1918,1.19,1.1918,1.1941,1.2072,1.2075,1.2077,1.2056,1.2058,1.2059,0,0,0,0,0,0,1.1373,1.1456,1.1471,1.1536,1.1587,1.1659,1.1688,1.1707,1.176,1.176,1.1807,1.1823,1.1884,1.1919,1.1898,1.1999,1.1996,1.2002,1.1973,1.1976,1.1977,1.1967,1.1916,0,0,0,0,0,1.1374,1.1424,1.1493,1.1544,1.1569,1.1624,1.1656,1.1683,1.1737,1.1759,1.1806,1.1858,1.1912,1.1946,1.1999,1.2062,1.2078,1.2086,1.2088,1.2089,1.2093,1.2129,1.2133,1.2087,1.2087,1.2087,0,0,1.1375,1.1427,1.1455,1.1539,1.1582,1.1632,1.1642,1.1695,1.1732,1.1767,1.1831,1.1867,1.1929,1.1993,1.2023,1.2023,1.211,1.2092,1.2092,1.2096,1.2132,1.2136,1.214,1.2088,1.2088,1.2088,0,0,1.1404,1.1448,1.1495,1.1538,1.1602,1.1639,1.165,1.172,1.1745,1.181,1.1837,1.1883,1.1974,1.2016,1.205,1.2095,1.2112,1.2111,1.2118,1.2152,1.2156,1.2159,1.2175,1.218,1.2115,1.2115,1.2115,0,1.1397,1.1474,1.1517,1.1569,1.1605,1.1639,1.1687,1.1726,1.1804,1.1828,1.1827,1.1942,1.1986,1.2061,1.2071,1.2098,1.2112,1.2102,1.2152,1.2156,1.216,1.2175,1.2181,1.2114,1.2114,1.2115,1.2115,0,1.1463,1.1516,1.1546,1.1621,1.1661,1.171,1.1761,1.1796,1.1819,1.1855,1.1921,1.1975,1.2039,1.2059,1.2082,1.2137,1.2135,1.2143,1.214,1.2163,1.2178,1.2184,1.2113,1.2114,1.2114,1.2114,0,0,1.1473,1.1572,1.1583,1.1617,1.1691,1.1733,1.1784,1.1847,1.1876,1.1929,1.1972,1.2049,1.2056,1.2094,1.2123,1.2153,1.2185,1.2157,1.216,1.216,1.2248,1.2241,1.2247,1.2198,1.2199,1.22,1.2243,0,1.1511,1.1604,1.1644,1.1719,1.1768,1.1801,1.1846,1.1896,1.1931,1.1978,1.2018,1.2071,1.2077,1.21,1.2132,1.2174,1.2203,1.2172,1.2238,1.224,1.2221,1.2256,1.2249,1.2287,1.2249,1.225,1.2251,0,1.1566,1.162,1.1699,1.1768,1.179,1.1829,1.189,1.1935,1.1992,1.2016,1.2059,1.2086,1.2141,1.2135,1.2211,1.2189,1.2219,1.2244,1.2247,1.2254,1.2246,1.2263,1.23,1.2305,1.2261,1.226,1.2259,0,1.1566,1.1658,1.1717,1.1746,1.1827,1.1854,1.1889,1.1946,1.1981,1.2034,1.2058,1.2117,1.2149,1.2194,1.2236,1.2229,1.2308,1.2306,1.2329,1.2328,1.2344,1.2342,1.2385,1.2364,1.2364,1.2364,1.2363,0,1.1603,1.165,1.1718,1.1754,1.1808,1.1854,1.1906,1.1944,1.1994,1.2038,1.2071,1.2111,1.2165,1.2213,1.2246,1.2304,1.2318,1.2339,1.2347,1.2336,1.2333,1.2355,1.2353,1.2365,1.2365,1.2365,1.2364,0,1.161,1.1658,1.1725,1.1797,1.1816,1.1852,1.1914,1.195,1.1988,1.2043,1.2059,1.2117,1.2175,1.2222,1.2297,1.232,1.238,1.239,1.236,1.2365,1.2384,1.2382,1.2443,1.2453,1.2425,1.2425,1.2425,0,1.163,1.1667,1.1743,1.1776,1.181,1.1862,1.1898,1.1945,1.1982,1.205,1.2079,1.2139,1.2189,1.228,1.2329,1.2387,1.2398,1.2415,1.2407,1.2394,1.2397,1.2394,1.2398,1.2416,1.2416,1.2416,1.2416,0,1.1661,1.1683,1.1734,1.1794,1.1837,1.1886,1.1937,1.1961,1.2017,1.2057,1.2116,1.2155,1.2232,1.2292,1.2355,1.2391,1.2412,1.2418,1.2426,1.2415,1.2396,1.2406,1.2362,1.2416,1.2416,1.2416,1.2416,1.2416,1.1675,1.171,1.1769,1.1825,1.1868,1.1914,1.1952,1.1995,1.2045,1.2112,1.2137,1.2198,1.2255,1.2342,1.2378,1.2426,1.2428,1.244,1.2443,1.2445,1.2443,1.2389,1.2438,1.2438,1.2438,1.2438,1.2438,0,1.1707,1.1747,1.1798,1.1868,1.1912,1.193,1.1986,1.2022,1.2075,1.2127,1.2176,1.2244,1.2302,1.2356,1.2416,1.2444,1.2455,1.2458,1.2456,1.2464,1.2438,1.2425,1.2448,1.2448,1.2448,1.2448,1.2448,1.2448,1.1728,1.1788,1.1817,1.1898,1.1938,1.1998,1.2029,1.2071,1.2113,1.2188,1.2236,1.2271,1.2323,1.2388,1.2441,1.2456,1.2476,1.2476,1.2493,1.2467,1.2466,1.2464,1.2452,1.248,1.248,1.2514,1.2515,1.2515]},{"header":{"parameterUnit":"m.s-1","parameterCategory":1,"la1":30.2991,"la2":30.254,"lo1":-89.0895,"lo2":-89.0444,"dy":0.0017,"dx":0.0017,"nx":28,"ny":28,"refTime":"2023-08-13T21:00:00:Z","depth":0,"parameterNumber":3,"parameterNumberName":"V-component_of_WINDS"},"data":[0,0,0,0,0,0,0,0,0,0,0,0,0,0,0,0,0,0,0,0,0,0,0,0,0,0,0,0,0,0,0,0,0,0,0,0,0,0,0,0,0,0,0,0,0,0,0,0,0,0,0,0,0,0,0,0,0,0,5.8045,5.8045,0,5.8069,5.8069,5.8069,5.8015,5.8014,5.8012,5.801,5.8031,5.8033,5.8035,0,0,0,0,0,0,0,0,0,0,0,0,0,5.7949,5.7951,5.8045,5.8045,5.8046,5.8069,5.8069,5.807,5.8016,5.8014,5.8012,5.801,5.8031,5.8033,5.8036,0,0,0,0,0,0,0,0,0,0,0,0,0,5.7984,5.7952,5.8045,5.8022,5.802,5.8069,5.8069,5.807,5.8016,5.8014,5.8011,5.8009,5.803,5.8033,5.8036,5.8108,0,0,5.8046,5.8047,0,0,0,0,0,0,0,0,5.7982,5.7987,5.8025,5.8023,5.8021,5.8037,5.8043,5.8082,5.8017,5.8018,5.801,5.8007,5.8035,5.8038,5.8048,5.8109,5.8109,5.8046,5.8048,5.805,5.805,0,0,0,0,0,0,0,5.7979,5.7986,5.8054,5.8025,5.8023,5.8009,5.8011,5.805,5.804,5.8017,5.8013,5.8017,5.8033,5.8045,5.8048,5.811,5.8046,5.8049,5.8051,5.8052,5.8229,5.8232,0,0,0,0,0,0,5.798,5.7984,5.8054,5.8055,5.7995,5.8013,5.8015,5.8034,5.804,5.8038,5.8019,5.8015,5.804,5.8044,5.8048,5.8131,5.805,5.8053,5.8054,5.8227,5.823,5.8233,0,0,0,0,0,0,5.7979,5.7987,5.8053,5.8019,5.8026,5.8017,5.8039,5.8036,5.8047,5.8041,5.8039,5.8033,5.8038,5.8044,5.8093,5.8131,5.8054,5.8057,5.8223,5.8228,5.8232,5.8299,0,0,0,0,0,0,5.7976,5.7987,5.8015,5.802,5.8028,5.8099,5.8042,5.8038,5.8053,5.8047,5.8053,5.8052,5.8037,5.8089,5.8096,5.8134,5.8059,5.822,5.8225,5.823,5.8294,5.8305,5.8315,0,0,0,0,0,5.7973,5.8032,5.8017,5.8025,5.8063,5.8101,5.8106,5.8088,5.8057,5.8084,5.808,5.8052,5.8126,5.8094,5.8102,5.8142,5.8217,5.8224,5.823,5.8289,5.8303,5.8315,0,0,0,0,0,0,5.8031,5.8033,5.8015,5.8078,5.809,5.8092,5.8126,5.8104,5.8124,5.8117,5.8094,5.8095,5.8149,5.8151,5.8115,5.8211,5.8166,5.8174,5.8208,5.8222,5.8232,5.823,5.8062,0,0,0,0,0,5.8052,5.8084,5.8083,5.8139,5.8146,5.8135,5.8151,5.8137,5.8147,5.8152,5.8151,5.8162,5.8187,5.8205,5.8228,5.8294,5.8293,5.8325,5.8336,5.8345,5.8352,5.8385,5.8399,5.8253,5.8253,5.8253,0,0,5.8094,5.8099,5.812,5.815,5.8158,5.819,5.8139,5.8176,5.8199,5.8157,5.8203,5.8204,5.8214,5.8272,5.8297,5.8274,5.8392,5.8353,5.836,5.8362,5.8393,5.8407,5.8419,5.8258,5.8257,5.8256,0,0,5.8187,5.8194,5.8241,5.825,5.8262,5.8255,5.8266,5.8271,5.827,5.8317,5.8286,5.8312,5.8358,5.8366,5.8376,5.8472,5.8446,5.848,5.8536,5.857,5.8581,5.8591,5.8624,5.8637,5.8487,5.8488,5.8488,0,5.8237,5.8286,5.8268,5.8307,5.832,5.8285,5.8331,5.834,5.8359,5.8368,5.8343,5.8399,5.8403,5.8462,5.8485,5.8495,5.8506,5.8479,5.8581,5.8591,5.86,5.8631,5.8644,5.8492,5.8491,5.8491,5.849,0,5.8347,5.8381,5.8417,5.8438,5.8455,5.8498,5.8485,5.8505,5.8489,5.8484,5.8531,5.8535,5.8559,5.8572,5.8556,5.8628,5.8613,5.8585,5.8539,5.8618,5.8647,5.8659,5.8497,5.8496,5.8495,5.8494,0,0,5.8477,5.8487,5.85,5.8509,5.852,5.8545,5.8585,5.8609,5.8626,5.864,5.8672,5.8711,5.8685,5.8697,5.8682,5.8711,5.8786,5.8679,5.8679,5.8698,5.8864,5.8885,5.8899,5.8769,5.8771,5.8773,5.8863,0,5.8568,5.8639,5.8623,5.8692,5.8723,5.8689,5.8724,5.8734,5.873,5.8754,5.8749,5.8777,5.8741,5.8748,5.8775,5.8771,5.8819,5.8764,5.8798,5.8799,5.8795,5.8915,5.8937,5.9021,5.8874,5.8876,5.8878,0,5.8684,5.8704,5.8776,5.8781,5.8794,5.8825,5.8845,5.887,5.888,5.8875,5.8888,5.8867,5.8906,5.8861,5.8912,5.8876,5.8888,5.8888,5.8891,5.8893,5.8843,5.8918,5.9048,5.906,5.8896,5.8894,5.8893,0,5.8771,5.8815,5.8864,5.8872,5.888,5.8903,5.8907,5.8914,5.8929,5.8947,5.8956,5.8977,5.8989,5.9005,5.899,5.8959,5.9044,5.8998,5.904,5.9041,5.9059,5.9058,5.9191,5.9069,5.9069,5.9068,5.9068,0,5.8874,5.8919,5.8902,5.8932,5.8981,5.8963,5.9012,5.9012,5.9019,5.9047,5.9019,5.9046,5.9025,5.905,5.9038,5.9082,5.9088,5.9084,5.908,5.9086,5.9087,5.9093,5.9087,5.9072,5.9071,5.907,5.907,0,5.8978,5.8969,5.902,5.9023,5.9025,5.9061,5.9063,5.909,5.9085,5.9121,5.9128,5.9119,5.9147,5.9134,5.9162,5.9155,5.9211,5.92,5.9209,5.9205,5.9248,5.9244,5.9389,5.9407,5.9274,5.9276,5.9277,0,5.9044,5.9078,5.9085,5.9103,5.9109,5.9138,5.9153,5.9136,5.9153,5.9167,5.9192,5.9217,5.9237,5.9282,5.9277,5.9299,5.9287,5.9337,5.929,5.9295,5.9287,5.9285,5.9288,5.9346,5.9348,5.9349,5.935,0,5.9162,5.9156,5.918,5.9202,5.9222,5.9238,5.9252,5.9268,5.9251,5.9271,5.93,5.9315,5.9345,5.937,5.9389,5.9391,5.9368,5.9365,5.9376,5.9382,5.9385,5.9383,5.9233,5.9361,5.936,5.9359,5.9359,5.9358,5.9248,5.9277,5.9286,5.9314,5.9323,5.9336,5.9362,5.936,5.9384,5.9407,5.9395,5.9428,5.9436,5.9459,5.9465,5.949,5.947,5.9486,5.949,5.9494,5.9499,5.9382,5.9493,5.9493,5.9493,5.9492,5.9492,0,5.9363,5.9368,5.9394,5.9415,5.9436,5.9413,5.9427,5.9446,5.9476,5.9486,5.9506,5.9538,5.9563,5.956,5.9582,5.9602,5.9592,5.9609,5.9606,5.9607,5.9516,5.9504,5.9616,5.9616,5.9616,5.9616,5.9616,5.9616,5.9426,5.9473,5.9468,5.9518,5.9522,5.9555,5.9565,5.9577,5.9585,5.9623,5.9643,5.9642,5.9646,5.9668,5.9689,5.9688,5.9697,5.9717,5.9712,5.9626,5.9614,5.9602,5.9591,5.972,5.972,5.9801,5.9801,5.9802]}]]